Current weather by "City, St" or "zip code"  
 

Current Conditions: Albany International Airport, NY

Overcast


62.0 F

Last Updated on May 24 2019, 2:51 am EDT
Humidity: 70%
Wind Speed: W 11.5 mph
Barometer 29.74 in
Dewpoint: 52.0 F
Visibility: 10.00 mi
Precip: --
Heat Index: NA
Wind Chill: 61 F
Current conditions at:

Albany International Airport, NY (KALB)

Lat: 42.74 Lon: 73.799

Local Radar Image active severe weather and emergency alerts image image weather storm and storm spotter reports image weather observation monitoring service image
Local
Radar
Active
Alerts
Storm Reports Obs
Monitoring

iAlert Weather and Emergency Alert Notification Services:


ialert severe weather and emergency alerts by text message and email ialert daily weather forecast by email and text message service ialert real-time weather-observation monitoring and alert notification service ialert storm report monitoring alert notification

Observation History for Albany International Airport, NY


Time Wind
(mph)
Vis
(mi)
Weather Precip (in) Temperature (F) Relative
Humidity
Wind
Chill
(°F)
Heat
Index
(°F)
Pressure
Air Dwpt altimeter
(in)
sea level
(mb)
2:51 am EDT W 11.5 10.00 Overcast -- 62.0 52.0 70% 61 NA 29.74 1006.9
1:51 am EDT W 11.5 10.00 A Few Clouds -- 62.0 55.0 78% 61 NA 29.76 1007.7
12:51 am EDT W 9.2 10.00 A Few Clouds -- 62.0 55.9 80% 61 NA 29.78 1008.3
11:51 pm EDT W 4.6 10.00 Partly Cloudy -- 63.0 57.0 81% 64 NA 29.79 1008.6
10:51 pm EDT W 9.2 10.00 Partly Cloudy 00.13 64.0 59.0 84% NA NA 29.78 1008.3
9:51 pm EDT NW 17.3 G 32.2 2.00 Thunderstorm Light Rain 00.06 66.0 60.1 81% NA NA 29.77 1008.1
8:51 pm EDT S 17.3 G 25.3 10.00 Partly Cloudy -- 68.0 59.0 73% NA NA 29.71 1005.8
7:51 pm EDT S 16.1 G 21.9 10.00 Mostly Cloudy -- 68.0 57.0 68% NA NA 29.75 1007.4
6:51 pm EDT S 11.5 G 21.9 10.00 Mostly Cloudy 00.02 69.0 55.9 63% NA NA 29.79 1008.9
5:51 pm EDT S 12.7 10.00 Light Rain Trace 68.0 55.9 65% NA NA 29.84 1010.4
4:51 pm EDT S 17.3 G 23.0 10.00 Mostly Cloudy -- 70.0 57.9 66% NA NA 29.86 1011.0
3:51 pm EDT S 6.9 10.00 Overcast Trace 65.0 59.0 81% NA NA 29.93 1013.4
2:51 pm EDT SE 8.1 10.00 Light Rain -- 64.0 59.0 84% NA NA 29.95 1014.2
1:51 pm EDT S 13.8 G 19.6 7.00 Light Rain 00.01 66.0 55.9 70% NA NA 30.00 1015.9
12:51 pm EDT S 16.1 G 23.0 10.00 Mostly Cloudy -- 72.0 55.0 55% NA NA 30.00 1015.7
11:51 am EDT S 16.1 10.00 Mostly Cloudy -- 70.0 54.0 57% NA NA 30.02 1016.5
10:51 am EDT SE 13.8 10.00 Partly Cloudy -- 69.0 52.0 55% NA NA 30.05 1017.6
9:51 am EDT S 13.8 10.00 Partly Cloudy -- 66.0 51.1 59% NA NA 30.09 1019.0
8:51 am EDT S 15.0 10.00 Partly Cloudy -- 63.0 48.9 60% 61 NA 30.11 1019.7
7:51 am EDT S 15.0 10.00 Mostly Cloudy -- 61.0 46.9 60% 59 NA 30.13 1020.1
6:51 am EDT S 9.2 10.00 Mostly Cloudy -- 60.0 45.0 58% 59 NA 30.13 1020.2
5:51 am EDT S 8.1 10.00 Overcast -- 59.0 41.0 51% 58 NA 30.14 1020.4
4:51 am EDT S 5.8 10.00 Mostly Cloudy -- 57.0 39.9 53% 56 NA 30.13 1020.2
3:51 am EDT S 3.5 10.00 Overcast -- 59.0 42.1 54% NA NA 30.15 1020.8

Regional Weather Observation


Albany International Airport, NY (KALB)

Overcast
62.0 F

Bennington Morse State Airport, VT (KDDH)

Overcast
60.0 F

Glens Falls, Floyd Bennett Memorial Airport, NY (KGFL)

Mostly Cloudy
60.0 F

North Adams Harriman-and-West Airport, MA (KAQW)

NULL
60.0 F

Pittsfield Municipal Airport, MA (KPSF)

Fair
59.0 F

Middlebury State Airport, VT (K6B0)

Overcast
56.0 F

Advertise Here


Advertise Here